ECHOSTAR 23 (42070 NORAD) Tracking and Keplerian Element Data

This shows tracking and keplerian element data for the satellite.

Feedback or suggestion? Click here.




ElementValue
Catalog42070
NameECHOSTAR 23
Epoch Orbit2778
Epoch Day286.52669199
Epoch Year2024
RAAN213.0122
Inclination0.017
Eccentricity0.0002174
Argument of Perigee345.9987
Mean Anonmoly262.3173
Mean Motion1.00270444
Decay Rate-5.7E-07
L11 42070U 17014A 24286.52669199 -.00000057 00000+0 00000+0 0 9996
L22 42070 0.0170 213.0122 0002174 345.9987 262.3173 1.00270444 27783



Live tracking and technical data element details for ECHOSTAR 23 (NORAD 42070). ECHOSTAR 23 can be tracked NOW for your location showing map with azimuth and elevation plus other details from your city location.







IsCatalogInMostPopularTable: catalog: 42070, numindb: 868
Update: records affected: 1



GetName: 42070 ECHOSTAR 23

Hit Count: updated at: Thu, 23 Jan 2025 14:59:01 GMT